This is the latest recevied weather packets stored in our database for station/object KL1IO. If no packets are shown the sender has not sent any weather packets the latest 10 day(s).
| Time | Temp. | Humidity | Pressure | Rain* | Wind** | Luminosity | Snow |
|---|---|---|---|---|---|---|---|
| 1788140272 | 60° F | 60% | 757.6 mmHg | 0 in | - | 51 W/m² | - |
| 1788139971 | 61° F | 60% | 757.5 mmHg | 0 in | - | 54 W/m² | - |
| 1788139666 | 61° F | 61% | 757.5 mmHg | 0 in | - | 58 W/m² | - |
| 1788139361 | 61° F | 62% | 757.5 mmHg | 0 in | - | 64 W/m² | - |
| 1788139060 | 61° F | 60% | 757.7 mmHg | 0 in | - | 71 W/m² | - |
| 1788138756 | 61° F | 64% | 757.6 mmHg | 0 in | - | 75 W/m² | - |
| 1788138451 | 61° F | 66% | 757.6 mmHg | 0 in | - | 79 W/m² | - |
| 1788138145 | 61° F | 62% | 757.8 mmHg | 0 in | - | 84 W/m² | - |
| 1788137841 | 62° F | 59% | 757.6 mmHg | 0 in | - | 90 W/m² | - |
| 1788137536 | 62° F | 58% | 757.9 mmHg | 0 in | - | 99 W/m² | - |
| 1788137232 | 63° F | 55% | 757.7 mmHg | 0 in | - | 104 W/m² | - |
| 1788136928 | 64° F | 57% | 757.9 mmHg | 0 in | - | 116 W/m² | - |
| 1788136623 | 64° F | 55% | 757.8 mmHg | 0 in | - | 139 W/m² | - |
| 1788136319 | 64° F | 55% | 757.9 mmHg | 0 in | - | 151 W/m² | - |
| 1788136018 | 64° F | 54% | 757.9 mmHg | 0 in | - | 143 W/m² | - |
| 1788135712 | 64° F | 52% | 758 mmHg | 0 in | - | 125 W/m² | - |
| 1788135409 | 64° F | 53% | 757.9 mmHg | 0 in | - | 121 W/m² | - |
| 1788135104 | 65° F | 59% | 758 mmHg | 0 in | - | 134 W/m² | - |
| 1788134800 | 65° F | 54% | 758.1 mmHg | 0 in | - | 146 W/m² | - |
| 1788134495 | 65° F | 53% | 758.2 mmHg | 0 in | - | 157 W/m² | - |
| 1788134193 | 66° F | 48% | 758 mmHg | 0 in | - | 165 W/m² | - |
| 1788133889 | 67° F | 52% | 758.3 mmHg | 0 in | - | 195 W/m² | - |
| 1788133583 | 66° F | 48% | 758.2 mmHg | 0 in | - | 326 W/m² | - |
| 1788133279 | 66° F | 45% | 758.2 mmHg | 0 in | - | 309 W/m² | - |
| 1788132974 | 66° F | 48% | 758.5 mmHg | 0 in | - | 295 W/m² | - |
* Rain latest hour (hover to see other rain measurements)
** Current wind speed in m/s (hover to see current wind gust speed)